[Iaude] MPEC J271: 2024 JY12 [a=1.88,e=0.33,i=22.0,H=21.7]
    mpec at cfa.harvard.edu 
    mpec at cfa.harvard.edu
       
    Sat May 11 18:10:25 EDT 2024
    
    
  
M.P.E.C. 2024-J271                                 Issued 2024 May 11, 22:08 UT
     The Minor Planet Electronic Circulars contain information on unusual
         minor planets, routine data on comets and natural satellites,
         and occasional editorial announcements.  They are published
    on behalf of Division F of the International Astronomical Union by the
          Minor Planet Center, Smithsonian Astrophysical Observatory,
                          Cambridge, MA 02138, U.S.A.
			  
             Prepared using the Tamkin Foundation Computer Network
                              MPC at CFA.HARVARD.EDU
            URL https://www.minorplanetcenter.net/    ISSN 1523-6714
                                   2024 JY12                                    
Observations:
     K24J12Y* C2024 05 08.47304613 58 33.575+18 33 33.42         22.54wXEJ271F52
     K24J12Y  C2024 05 08.48623013 58 33.136+18 34 02.14         22.33wXEJ271F52
     K24J12Y  C2024 05 08.51257813 58 32.264+18 34 59.82         22.17wXEJ271F52
     K24J12Y KC2024 05 09.14749613 58 16.496+18 58 01.52         21.74GVEJ271V06
     K24J12Y KC2024 05 09.15147313 58 16.378+18 58 10.13         22.23GVEJ271V06
     K24J12Y KC2024 05 09.15545013 58 16.259+18 58 18.84         22.22GVEJ271V06
     K24J12Y KC2024 05 09.15942713 58 16.115+18 58 27.59         22.24GVEJ271V06
     K24J12Y KC2024 05 10.13842913 57 50.828+19 33 20.74               VEJ271V06
     K24J12Y KC2024 05 10.14320113 57 50.666+19 33 30.46         22.02GVEJ271V06
     K24J12Y KC2024 05 10.14797113 57 50.526+19 33 40.72         21.78GVEJ271V06
     K24J12Y KC2024 05 10.15274013 57 50.375+19 33 50.72         22.11GVEJ271V06
     K24J12Y 1C2024 05 11.88326 13 57 08.65 +20 33 16.5          22.2 VXEJ271033
     K24J12Y 1C2024 05 11.88688 13 57 08.54 +20 33 24.0          22.2 VXEJ271033
     K24J12Y 1C2024 05 11.89050 13 57 08.48 +20 33 30.8          22.5 VXEJ271033
Observer details:
033 Karl Schwarzschild Observatory, Tautenburg.  Observers S. Melnikov, C.
    Hogner, F. Ludwig, M. Hartmann, B. Stecklum.  Measurer B. Stecklum.
    1.34-m f/3 Schmidt + CCD.
F52 Pan-STARRS 2, Haleakala.  Observers J. Herman, T. Lowe, P. Minguez, A.
    Schultz, I. Smith.  Measurers K. Chambers, T. de Boer, J. Fairlamb, H.
    Gao, M. Huber, C.-C. Lin, E. Magnier, Y. Ramanjooloo, R. Wainscoat, R.
    Weryk.  1.8-m Ritchey-Chretien + CCD.
V06 Catalina Sky Survey-Kuiper.  Observer H. Groeller.  Measurers T. Beuden,
    V. F. Carvajal, D. Fay, J. B. Fazekas, D. C. Fuls, A. R. Gibbs, A. D.
    Grauer, H. Groeller, J. K. Hogan, R. A. Kowalski, S. M. Larson, G. J.
    Leonard, D. Rankin, R. L. Seaman, F. C. Shelly, K. W. Wierzchos.  1.55-m
    reflector + 1K CCD.
Orbital elements:
2024 JY12                                                Earth MOID = 0.4608 AU
Epoch 2024 Mar. 31.0 TT = JDT 2460400.5                 MPC                     
M 313.48284              (2000.0)            P               Q                  
n   0.38098615     Peri.   88.08780     +0.19596315     +0.97623988             
a   1.8845020      Node   194.26711     -0.98047631     +0.19349803             
e   0.3317163      Incl.   22.04251     -0.01626813     +0.09754076             
P   2.59           H   21.76          G   0.15           U   9                  
Residuals in seconds of arc
240508 F52  0.1+  0.1+    240509 V06  0.1+  0.1-    240510 V06  0.1-  0.1-
240508 F52  0.1+  0.1+    240509 V06  0.1-  0.0     240511 033  0.0   0.1-
240508 F52  0.0   0.4+    240510 V06  0.2+  0.4+    240511 033  0.2-  0.1+
240509 V06  0.1-  0.1-    240510 V06  0.1-  0.1-    240511 033  0.4+  0.4-
240509 V06  0.0   0.1-    240510 V06  0.0   0.0
Ephemeris:
2024 JY12                a,e,i = 1.88, 0.33, 22                  q = 1.2594
Date    TT    R. A. (2000) Decl.     Delta      r    Elong.  Phase     V
2024 04 11    14 12 42.4 -00 55 35   0.5691  1.5582   164.6     9.8    22.1
...
2024 04 26    14 05 21.4 +10 01 36   0.5179  1.4952   156.4    15.6    22.1
...
2024 05 04    14 00 49.0 +15 41 20   0.5120  1.4630   146.5    22.3    22.2
...
2024 05 10    13 57 53.7 +19 28 31   0.5156  1.4396   139.1    27.3    22.3
2024 05 11    13 57 29.0 +20 03 22   0.5168  1.4358   137.9    28.1    22.4
2024 05 12    13 57 05.9 +20 37 18   0.5181  1.4320   136.7    28.9    22.4
...
2024 05 18    13 55 26.5 +23 40 44   0.5285  1.4099   129.9    33.4    22.5
...
2024 05 26    13 55 16.8 +26 50 55   0.5475  1.3819   121.7    38.6    22.7
...
2024 06 10    14 02 16.8 +30 14 12   0.5900  1.3354   109.7    45.7    23.0
A. U. Tomatic                (C) Copyright 2024 MPC           M.P.E.C. 2024-J271
    
    
More information about the Iaude
mailing list